Tracking 20232 objects as of 22-Jan-2020
HD Live streaming from Space Station
objects crossing your sky now

COSMOS 2251 DEB

Track COSMOS 2251 DEB now!
10-day predictions


NORAD ID: 36622
Int'l Code: 1993-036BEL
Perigee: 633.2 km
Apogee: 759.3 km
Inclination: 74.0 °
Period: 98.5 minutes
Semi major axis: 7067 km
RCS: 0.0002 m2 (small)
Launch date: June 16, 1993
Source: Commonwealth of Independent States (former USSR) (CIS)
Launch site: PLESETSK MISSILE AND SPACE COMPLEX (PKMTR)

Note: This is SATELLITE DEBRIS
aabbcc
Your satellite tracking list
Your tracking list is empty




NASA's NSSDC Master Catalog

Two Line Element Set (TLE):
1 36622U 93036BEL 20021.22379675 +.00000101 +00000-0 +25882-4 0  9997
2 36622 074.0237 333.3041 0089230 286.9853 072.1549 14.61265529352193
Source of the keplerian elements: AFSPC